EW1577 Weather Reports


Display with metric or nautical units.
time (UTC)temp
F
wind
direction
speed
MPH
gust
MPH
rain 1hr
in
rain 24hr
in
rain mn
in
humidity
%
barometer
mb
20170623064419 70 135 1.0 3.0 0.00 0.00 0.00 98 1009.9
20170623063919 70 270 1.0 4.0 0.00 0.00 0.00 98 1009.9
20170623063416 70 113 1.0 5.0 0.00 0.00 0.00 98 1009.9
20170623062907 70 68 2.0 5.0 0.00 0.00 0.00 98 1009.9
20170623062355 70 135 2.0 5.0 0.00 0.00 0.00 98 1010.2
20170623061843 70 225 1.0 3.0 0.00 0.00 0.00 98 1010.2
20170623061344 70 293 2.0 3.0 0.00 0.00 0.00 98 1010.6
20170623060843 70 315 2.0 7.0 0.00 0.00 0.00 98 1010.2
20170623060333 70 113 3.0 7.0 0.00 0.00 0.00 98 1010.6
20170623055826 70 225 1.0 3.0 0.00 0.00 0.00 98 1010.6
20170623055254 70 203 1.0 7.0 0.00 0.00 0.00 98 1010.9
20170623054754 70 180 2.0 7.0 0.00 0.00 0.00 98 1010.9
20170623054256 70 180 1.0 3.0 0.00 0.00 0.00 98 1010.9
20170623053748 70 90 1.0 4.0 0.00 0.00 0.00 98 1010.9
20170623053230 70 90 2.0 5.0 0.00 0.00 0.00 98 1010.9
20170623052701 70 113 2.0 5.0 0.00 0.00 0.00 98 1010.9
20170623052202 70 0 1.0 3.0 0.00 0.00 0.00 98 1010.9
20170623051701 70 90 2.0 4.0 0.00 0.00 0.00 98 1010.9
20170623051133 70 68 2.0 4.0 0.00 0.00 0.00 98 1011.2
20170623050623 70 90 2.0 4.0 0.00 0.00 0.00 98 1011.2
20170623050109 71 158 1.0 4.0 0.00 0.00 0.00 98 1011.2
20170623045613 71 293 1.0 5.0 0.00 0.00 0.00 98 1011.6
20170623045109 71 113 2.0 5.0 0.00 0.00 0.00 98 1011.6
20170623044604 71 158 2.0 4.0 0.00 0.00 0.00 98 1011.6
20170623044049 71 113 2.0 4.0 0.00 0.00 0.00 96 1011.6
20170623043535 71 90 1.0 6.0 0.00 0.00 0.00 93 1012.4
20170623043024 72 270 2.0 6.0 0.00 0.00 0.00 93 1012.7
20170623042518 72 225 1.0 2.0 0.00 0.00 0.00 93 1012.7
20170623042010 72 203 2.0 2.0 0.00 0.00 0.00 91 1012.7
20170623041458 72 203 1.0 6.0 0.00 0.00 0.00 91 1013.0
20170623040944 72 203 4.0 6.0 0.00 0.00 0.00 90 1013.0
20170623040441 73 180 2.0 5.0 0.00 0.00 0.00 88 1013.0
20170623035809 73 90 2.0 5.0 0.00 0.00 0.00 88 1013.0
20170623035310 73 203 1.0 3.0 0.00 0.00 0.00 86 1013.0
20170623034741 73 158 0.0 2.0 0.00 0.00 0.00 85 1013.0
20170623034243 73 293 0.0 4.0 0.00 0.00 0.00 85 1013.0
20170623033733 73 135 2.0 4.0 0.00 0.00 0.00 85 1013.0
20170623033220 73 113 1.0 5.0 0.00 0.00 0.00 83 1013.4
20170623032707 73 225 2.0 5.0 0.00 0.00 0.00 83 1013.4
20170623032204 74 158 1.0 3.0 0.00 0.00 0.00 81 1013.4
20170623031652 74 135 1.0 3.0 0.00 0.00 0.00 81 1013.4
20170623031142 74 270 2.0 4.0 0.00 0.00 0.00 80 1013.4
20170623030631 75 203 1.0 6.0 0.00 0.00 0.00 78 1013.0
20170623030120 74 203 3.0 6.0 0.00 0.00 0.00 78 1013.4
20170623025622 75 68 1.0 3.0 0.00 0.00 0.00 78 1013.4
20170623025123 75 90 1.0 2.0 0.00 0.00 0.00 78 1013.4
20170623024611 75 270 1.0 4.0 0.00 0.00 0.00 78 1013.0
20170623024059 75 158 2.0 4.0 0.00 0.00 0.00 78 1013.0
20170623023601 75 248 2.0 3.0 0.00 0.00 0.00 78 1013.4
20170623023059 75 135 1.0 4.0 0.00 0.00 0.00 78 1013.4
20170623022548 75 248 1.0 4.0 0.00 0.00 0.00 76 1013.4
20170623022036 75 113 1.0 4.0 0.00 0.00 0.00 76 1013.4
20170623021523 75 270 1.0 2.0 0.00 0.00 0.00 76 1013.4
20170623021012 75 68 1.0 4.0 0.00 0.00 0.00 76 1013.0
20170623020509 75 158 2.0 5.0 0.00 0.00 0.00 75 1013.4
20170623020010 75 270 1.0 4.0 0.00 0.00 0.00 75 1013.4
20170623015426 75 270 1.0 5.0 0.00 0.00 0.00 75 1013.0
20170623014913 76 270 3.0 9.0 0.00 0.00 0.00 75 1013.0
20170623014405 76 180 3.0 9.0 0.00 0.00 0.00 75 1013.0
20170623013903 76 158 3.0 7.0 0.00 0.00 0.00 75 1013.0
20170623013402 76 293 1.0 3.0 0.00 0.00 0.00 75 1013.0
20170623012850 76 225 1.0 6.0 0.00 0.00 0.00 75 1013.0
20170623012349 76 203 4.0 8.0 0.00 0.00 0.00 75 1012.7
20170623011753 76 203 1.0 5.0 0.00 0.00 0.00 74 1013.0
20170623011254 76 225 1.0 6.0 0.00 0.00 0.00 74 1013.0
20170623010753 76 248 3.0 6.0 0.00 0.00 0.00 73 1013.0
20170623010240 77 113 2.0 6.0 0.00 0.00 0.00 71 1012.7
20170623005735 77 68 2.0 6.0 0.00 0.00 0.00 71 1013.0
20170623005202 77 90 2.0 6.0 0.00 0.00 0.00 71 1013.0
20170623004652 78 225 2.0 6.0 0.00 0.00 0.00 71 1012.7
20170623004151 77 248 3.0 6.0 0.00 0.00 0.00 71 1013.0
20170623003648 78 270 3.0 7.0 0.00 0.00 0.00 70 1013.0
20170623003123 78 225 3.0 7.0 0.00 0.00 0.00 70 1012.7
20170623002611 78 90 3.0 6.0 0.00 0.00 0.00 69 1012.7
20170623002116 78 135 4.0 11.0 0.00 0.00 0.00 69 1012.7
20170623001612 79 248 5.0 11.0 0.00 0.00 0.00 69 1013.0
20170623001100 79 180 4.0 9.0 0.00 0.00 0.00 70 1012.7
20170623000550 79 270 2.0 9.0 0.00 0.00 0.00 70 1012.7
20170623000042 79 248 3.0 5.0 0.00 0.00 0.00 70 1012.7
20170622235541 80 315 2.0 6.0 0.00 0.00 0.00 70 1012.7
20170622235041 80 225 3.0 6.0 0.00 0.00 0.00 70 1013.0
20170622234527 80 225 4.0 7.0 0.00 0.00 0.00 70 1012.7
20170622234017 80 225 2.0 10.0 0.00 0.00 0.00 70 1013.0
20170622233451 80 158 4.0 10.0 0.00 0.00 0.00 69 1012.7
20170622232947 80 113 3.0 6.0 0.00 0.00 0.00 69 1013.0
20170622232446 80 225 2.0 6.0 0.00 0.00 0.00 69 1013.0
20170622231936 81 248 2.0 7.0 0.00 0.00 0.00 66 1012.7
20170622231427 81 203 4.0 9.0 0.00 0.00 0.00 66 1012.7
20170622230913 81 225 4.0 9.0 0.00 0.00 0.00 68 1013.0
20170622230414 81 225 4.0 9.0 0.00 0.00 0.00 68 1013.0
20170622225912 83 158 4.0 11.0 0.00 0.00 0.00 66 1013.0
20170622225402 83 158 4.0 11.0 0.00 0.00 0.00 65 1012.7
20170622224848 83 203 2.0 4.0 0.00 0.00 0.00 66 1012.7
20170622224336 83 270 2.0 9.0 0.00 0.00 0.00 68 1012.7
20170622223833 83 225 4.0 9.0 0.00 0.00 0.00 66 1012.7
20170622223326 85 248 3.0 5.0 0.00 0.00 0.00 65 1013.0
20170622222752 85 270 3.0 5.0 0.00 0.00 0.00 65 1013.0
20170622222242 84 180 2.0 6.0 0.00 0.00 0.00 66 1013.0
20170622221730 85 113 3.0 6.0 0.00 0.00 0.00 65 1013.0
20170622221231 85 113 2.0 10.0 0.00 0.00 0.00 65 1013.0
20170622220729 85 135 4.0 10.0 0.00 0.00 0.00 65 1013.0
20170622220222 86 68 2.0 5.0 0.00 0.00 0.00 65 1013.0
20170622215711 86 225 3.0 6.0 0.00 0.00 0.00 65 1013.0
20170622215140 85 158 4.0 6.0 0.00 0.00 0.00 68 1013.4
20170622214641 84 158 2.0 6.0 0.00 0.00 0.00 70 1013.4
20170622214138 84 225 2.0 5.0 0.00 0.00 0.00 68 1013.4
20170622213629 84 225 2.0 3.0 0.00 0.00 0.00 69 1013.4
20170622213122 84 270 1.0 3.0 0.00 0.00 0.00 69 1013.4
20170622212601 84 203 2.0 3.0 0.00 0.00 0.00 69 1013.4
20170622212054 83 158 1.0 4.0 0.00 0.00 0.00 70 1013.4
20170622211548 83 203 2.0 4.0 0.00 0.00 0.00 69 1013.4
20170622211042 84 90 1.0 6.0 0.00 0.00 0.00 69 1013.7
20170622210529 84 135 2.0 6.0 0.00 0.00 0.00 66 1013.4
20170622210017 84 203 2.0 8.0 0.00 0.00 0.00 68 1013.4
20170622205520 84 270 3.0 8.0 0.00 0.00 0.00 65 1013.7
20170622205020 84 225 3.0 10.0 0.00 0.00 0.00 66 1013.7
20170622204507 85 180 2.0 5.0 0.00 0.00 0.00 65 1013.7
20170622203955 85 203 2.0 9.0 0.00 0.00 0.00 65 1013.7
20170622203445 85 180 4.0 9.0 0.00 0.00 0.00 65 1013.7
20170622202942 84 45 2.0 6.0 0.00 0.00 0.00 65 1014.0
20170622202342 85 180 3.0 6.0 0.00 0.00 0.00 65 1014.4
20170622201838 85 158 2.0 4.0 0.00 0.00 0.00 65 1014.0
20170622201331 85 225 2.0 4.0 0.00 0.00 0.00 66 1014.4
20170622200814 86 225 2.0 4.0 0.00 0.00 0.00 65 1014.4
20170622200306 86 90 2.0 4.0 0.00 0.00 0.00 65 1014.4
20170622195804 85 158 3.0 8.0 0.00 0.00 0.00 65 1014.4
20170622195305 84 248 3.0 8.0 0.00 0.00 0.00 66 1014.7
20170622194753 84 23 3.0 6.0 0.00 0.00 0.00 66 1014.7
20170622194245 85 113 2.0 9.0 0.00 0.00 0.00 66 1014.7
20170622193734 84 270 3.0 9.0 0.00 0.00 0.00 65 1014.7
20170622193233 84 225 3.0 6.0 0.00 0.00 0.00 65 1014.7
20170622192730 84 158 3.0 6.0 0.00 0.00 0.00 65 1014.7
20170622192221 85 225 3.0 7.0 0.00 0.00 0.00 65 1014.7
20170622191710 85 248 3.0 7.0 0.00 0.00 0.00 65 1014.7
20170622191210 86 180 2.0 6.0 0.00 0.00 0.00 63 1014.7
20170622190712 85 158 3.0 5.0 0.00 0.00 0.00 65 1015.1
20170622190139 87 180 2.0 7.0 0.00 0.00 0.00 63 1015.1
20170622185629 86 23 4.0 7.0 0.00 0.00 0.00 63 1015.1
20170622185120 86 158 3.0 6.0 0.00 0.00 0.00 63 1015.1
20170622184611 86 90 3.0 6.0 0.00 0.00 0.00 65 1015.1
20170622184106 84 225 3.0 6.0 0.00 0.00 0.00 66 1014.7
20170622183604 84 135 2.0 4.0 0.00 0.00 0.00 68 1015.1
20170622183057 85 180 2.0 4.0 0.00 0.00 0.00 65 1014.7
20170622182544 85 225 2.0 5.0 0.00 0.00 0.00 65 1015.1
20170622182046 87 225 2.0 5.0 0.00 0.00 0.00 65 1015.5
20170622181544 86 203 2.0 8.0 0.00 0.00 0.00 65 1015.1
20170622181035 86 270 4.0 8.0 0.00 0.00 0.00 63 1015.5
20170622180521 85 225 4.0 7.0 0.00 0.00 0.00 66 1015.5
20170622180014 84 135 2.0 5.0 0.00 0.00 0.00 69 1015.5
20170622175514 84 90 3.0 6.0 0.00 0.00 0.00 68 1015.5
20170622175012 84 225 3.0 8.0 0.00 0.00 0.00 65 1015.5
20170622174501 85 180 3.0 8.0 0.00 0.00 0.00 63 1015.5
20170622173948 86 158 3.0 10.0 0.00 0.00 0.00 63 1015.5
20170622173451 85 248 5.0 10.0 0.00 0.00 0.00 63 1015.5
20170622172946 86 180 3.0 7.0 0.00 0.00 0.00 63 1015.8
20170622172435 87 113 3.0 5.0 0.00 0.00 0.00 65 1015.8
20170622171924 85 113 3.0 8.0 0.00 0.00 0.00 63 1015.8
20170622171416 85 203 4.0 8.0 0.00 0.00 0.00 63 1015.8
20170622170913 86 113 4.0 7.0 0.00 0.00 0.00 61 1016.2
20170622170416 86 90 2.0 4.0 0.00 0.00 0.00 61 1016.2
20170622165906 86 248 2.0 5.0 0.00 0.00 0.00 63 1015.8
20170622165355 85 203 3.0 9.0 0.00 0.00 0.00 63 1015.8
20170622164825 85 158 4.0 9.0 0.00 0.00 0.00 61 1015.8
20170622164323 86 225 4.0 7.0 0.00 0.00 0.00 60 1015.8
20170622163825 86 270 2.0 5.0 0.00 0.00 0.00 60 1016.2
20170622163314 87 135 2.0 6.0 0.00 0.00 0.00 61 1015.8
20170622162803 86 270 3.0 6.0 0.00 0.00 0.00 63 1016.2
20170622162249 85 180 3.0 5.0 0.00 0.00 0.00 61 1015.8
20170622161752 85 225 3.0 9.0 0.00 0.00 0.00 61 1015.8
20170622161251 85 158 4.0 9.0 0.00 0.00 0.00 61 1015.8
20170622160740 86 270 3.0 6.0 0.00 0.00 0.00 61 1015.8
20170622160224 86 158 3.0 6.0 0.00 0.00 0.00 61 1015.8
20170622155717 86 180 3.0 7.0 0.00 0.00 0.00 63 1016.2
20170622155214 86 180 4.0 7.0 0.00 0.00 0.00 63 1016.2
20170622154713 86 158 3.0 7.0 0.00 0.00 0.00 66 1016.2
20170622154115 85 225 3.0 7.0 0.00 0.00 0.00 66 1016.2
20170622153604 85 203 3.0 7.0 0.00 0.00 0.00 65 1016.2
20170622153053 85 293 4.0 7.0 0.00 0.00 0.00 65 1016.2
20170622152536 85 68 2.0 5.0 0.00 0.00 0.00 68 1016.2
20170622152031 84 158 2.0 6.0 0.00 0.00 0.00 69 1016.2
20170622151520 84 225 3.0 6.0 0.00 0.00 0.00 69 1016.2
20170622150956 83 203 3.0 8.0 0.00 0.00 0.00 70 1016.2
20170622150443 83 248 3.0 8.0 0.00 0.00 0.00 69 1016.2
20170622145933 83 248 2.0 5.0 0.00 0.00 0.00 70 1016.2
20170622145428 82 203 2.0 4.0 0.00 0.00 0.00 71 1016.5
20170622144930 81 90 3.0 4.0 0.00 0.00 0.00 74 1016.2
20170622144424 80 203 2.0 6.0 0.00 0.00 0.00 73 1015.8
20170622143907 80 225 4.0 6.0 0.00 0.00 0.00 73 1016.2
20170622143357 81 158 3.0 6.0 0.00 0.00 0.00 73 1016.2
20170622142857 81 248 2.0 5.0 0.00 0.00 0.00 74 1016.2
20170622142357 80 158 3.0 5.0 0.00 0.00 0.00 74 1016.5
20170622141852 80 90 3.0 5.0 0.00 0.00 0.00 74 1016.9
20170622141335 81 248 2.0 5.0 0.00 0.00 0.00 71 1016.5
20170622140836 79 158 3.0 5.0 0.00 0.00 0.00 75 1016.9
20170622140336 79 203 3.0 5.0 0.00 0.00 0.00 75 1016.5
20170622135854 79 203 2.0 4.0 0.00 0.00 0.00 75 1016.5
20170622135331 79 225 2.0 5.0 0.00 0.00 0.00 76 1016.5
20170622134835 78 225 3.0 5.0 0.00 0.00 0.00 75 1016.5
20170622134328 78 225 2.0 4.0 0.00 0.00 0.00 76 1016.5
20170622133819 78 338 2.0 4.0 0.00 0.00 0.00 76 1016.5
20170622133309 78 158 2.0 4.0 0.00 0.00 0.00 78 1016.5
20170622132805 78 135 2.0 3.0 0.00 0.00 0.00 79 1016.5
20170622132238 78 113 1.0 4.0 0.00 0.00 0.00 80 1016.5
20170622131738 78 225 1.0 4.0 0.00 0.00 0.00 80 1016.2
20170622131230 78 338 2.0 4.0 0.00 0.00 0.00 81 1016.2
20170622130727 78 270 1.0 3.0 0.00 0.00 0.00 81 1015.8
20170622130148 78 225 2.0 5.0 0.00 0.00 0.00 81 1015.8
20170622125636 78 203 2.0 5.0 0.00 0.00 0.00 81 1015.5
20170622125137 78 135 1.0 3.0 0.00 0.00 0.00 83 1015.8
20170622124637 78 135 2.0 3.0 0.00 0.00 0.00 81 1015.8
20170622124126 77 90 2.0 3.0 0.00 0.00 0.00 85 1015.5
20170622123614 76 225 1.0 3.0 0.00 0.00 0.00 88 1015.8
20170622123115 76 248 1.0 3.0 0.00 0.00 0.00 88 1016.2
20170622122611 76 113 1.0 3.0 0.00 0.00 0.00 90 1015.8
20170622122104 76 203 1.0 2.0 0.00 0.00 0.00 90 1015.8
20170622121552 76 225 1.0 2.0 0.00 0.00 0.00 90 1015.5
20170622121020 76 23 1.0 3.0 0.00 0.00 0.00 91 1015.5
20170622120516 76 293 1.0 3.0 0.00 0.00 0.00 91 1015.5
20170622120014 76 203 1.0 3.0 0.00 0.00 0.00 93 1015.5
20170622115510 75 203 1.0 2.0 0.00 0.00 0.00 95 1015.5
20170622114925 75 180 1.0 4.0 0.00 0.00 0.00 93 1015.5
20170622114415 75 225 2.0 4.0 0.00 0.00 0.00 95 1015.5
20170622113858 75 203 1.0 1.0 0.00 0.00 0.00 95 1015.5
20170622113400 76 158 1.0 1.0 0.00 0.00 0.00 93 1015.5
20170622112833 75 180 0.0 1.0 0.00 0.00 0.00 96 1015.8
20170622112335 75 23 0.0 1.0 0.00 0.00 0.00 98 1015.5
20170622111825 74 248 0.0 1.0 0.00 0.00 0.00 98 1015.5
20170622111313 73 135 0.0 2.0 0.00 0.00 0.00 98 1015.5
20170622110807 72 68 0.0 2.0 0.00 0.00 0.00 98 1015.5
20170622110244 72 113 0.0 0.0 0.00 0.00 0.00 98 1015.5
20170622105742 71 180 0.0 0.0 0.00 0.00 0.00 98 1015.8
20170622105233 70 68 0.0 0.0 0.00 0.00 0.00 98 1015.5
20170622104718 70 68 0.0 0.0 0.00 0.00 0.00 98 1015.5
20170622104205 69 68 0.0 0.0 0.00 0.00 0.00 98 1015.5
20170622103702 69 293 0.0 0.0 0.00 0.00 0.00 98 1015.5
20170622103055 69 293 0.0 0.0 0.00 0.00 0.00 98 1015.5
20170622102552 69 180 0.0 0.0 0.00 0.00 0.00 98 1015.5
20170622102019 69 113 0.0 0.0 0.00 0.00 0.00 98 1015.5
20170622101513 69 90 0.0 0.0 0.00 0.00 0.00 98 1015.1
20170622100955 70 180 0.0 0.0 0.00 0.00 0.00 98 1015.5
20170622100455 70 180 0.0 0.0 0.00 0.00 0.00 98 1015.5
20170622095953 70 180 0.0 0.0 0.00 0.00 0.00 98 1015.5
20170622095443 70 113 0.0 0.0 0.00 0.00 0.00 98 1015.5
20170622094936 71 180 0.0 0.0 0.00 0.00 0.00 98 1015.5
20170622094413 71 180 0.0 0.0 0.00 0.00 0.00 98 1015.5
20170622093801 71 180 0.0 0.0 0.00 0.00 0.00 98 1015.5
20170622093248 71 180 0.0 0.0 0.00 0.00 0.00 98 1015.5
20170622092754 71 135 0.0 0.0 0.00 0.00 0.00 98 1015.5
20170622092248 72 270 0.0 0.0 0.00 0.00 0.00 98 1015.5
20170622091742 71 225 0.0 0.0 0.00 0.00 0.00 98 1015.5
20170622091232 71 203 0.0 1.0 0.00 0.00 0.00 98 1015.5
20170622090645 71 180 0.0 1.0 0.00 0.00 0.00 98 1015.5
20170622090111 71 158 0.0 0.0 0.00 0.00 0.00 98 1015.8
20170622085601 71 203 0.0 1.0 0.00 0.00 0.00 98 1015.5
20170622085058 72 158 0.0 1.0 0.00 0.00 0.00 98 1015.5
20170622084543 72 158 0.0 0.0 0.00 0.00 0.00 98 1015.5
20170622084032 72 180 0.0 2.0 0.00 0.00 0.00 98 1015.5
20170622083521 73 203 0.0 2.0 0.00 0.00 0.00 98 1015.5
20170622083025 72 225 0.0 2.0 0.00 0.00 0.00 98 1015.5
20170622082521 71 180 0.0 1.0 0.00 0.00 0.00 98 1015.1
20170622082009 71 203 0.0 1.0 0.00 0.00 0.00 98 1015.1
20170622081457 71 158 0.0 1.0 0.00 0.00 0.00 98 1015.5
20170622080947 71 180 0.0 1.0 0.00 0.00 0.00 98 1015.5
20170622080446 72 225 0.0 1.0 0.00 0.00 0.00 98 1015.5
20170622075948 72 225 0.0 1.0 0.00 0.00 0.00 98 1015.5
20170622075434 72 203 0.0 1.0 0.00 0.00 0.00 96 1015.5
20170622074922 73 203 0.0 1.0 0.00 0.00 0.00 96 1015.5
20170622074413 73 203 0.0 1.0 0.00 0.00 0.00 96 1015.1
20170622073916 73 203 0.0 1.0 0.00 0.00 0.00 95 1015.5
20170622073412 73 248 0.0 1.0 0.00 0.00 0.00 95 1015.1
20170622072906 73 113 0.0 1.0 0.00 0.00 0.00 95 1015.1
20170622072347 73 225 0.0 1.0 0.00 0.00 0.00 95 1015.1
20170622071841 73 203 0.0 1.0 0.00 0.00 0.00 93 1015.1
20170622071338 73 203 0.0 2.0 0.00 0.00 0.00 93 1015.1
20170622070835 74 180 1.0 2.0 0.00 0.00 0.00 93 1015.1
20170622070315 74 180 1.0 3.0 0.00 0.00 0.00 93 1014.7
20170622065802 74 203 2.0 3.0 0.00 0.00 0.00 93 1015.1
20170622065259 74 225 2.0 5.0 0.00 0.00 0.00 93 1015.1
20170622064800 74 90 3.0 8.0 0.00 0.00 0.00 93 1015.1